Air Resources Laboratory banner image
Air Resources Laboratory web site National Oceanic and Atmospheric Administration (NOAA)

de roundup


Office: PHI

ASUS41 KPHI 221013
RWRPHI

REGIONAL WEATHER ROUNDUP
NATIONAL WEATHER SERVICE MOUNT HOLLY NJ
600 AM EDT SUN JUL 22 2018

NOTE:  "FAIR" INDICATES FEW OR NO CLOUDS BELOW 12,000 FEET WITH NO
SIGNIFICANT WEATHER AND/OR OBSTRUCTIONS TO VISIBILITY.

 * = STATION DOES NOT REPORT PRECIPITATION (E.G. RAIN, SNOW, ETC.)
        OR FOG.

NJZ015>026-221100-
SOUTHERN NEW JERSEY

CITY           SKY/WX    TMP DP  RH WIND       PRES   REMARKS
POMONA         CLOUDY    73  70  90 S15G25    29.78R
WILDWOOD*        N/A    N/A N/A N/A MISG        N/A
MILLVILLE      LGT RAIN  70  69  97 S8        29.77R FOG
WRIGHTSTOWN    CLOUDY    70  70 100 SE15      29.73R
MOUNT HOLLY    CLOUDY    70  70 100 VRB6      29.74R FOG
TRENTON        CLOUDY    72  70  93 S14       29.74R FOG

$$
NJZ001>014-221100-
NORTHERN NEW JERSEY

CITY           SKY/WX    TMP DP  RH WIND       PRES   REMARKS
SUSSEX         MOCLDY    73  70  90 SE9       29.78R
ANDOVER*         N/A     72  71  97 VRB6      29.77R
MORRISTOWN     DRIZZLE   72  72 100 S6        29.78R
NEWARK         LGT RAIN  73  71  93 SE12G21   29.79R
TETERBORO      CLOUDY    76  71  85 SE13G24   29.78R FOG
CALDWELL       LGT RAIN  73  72  96 S14G24    29.79R
SOMERVILLE     LGT RAIN  71  71 100 SE5       29.74R FOG
ALLAIRE*       CLOUDY    71  69  93 S14G20    29.80R
TOMS RIVER*    CLOUDY    72  70  94 S10       29.79R

$$
PAZ043-044-047-054-055-060>062-066>071-221100-
EASTERN PENNSYLVANIA

CITY           SKY/WX    TMP DP  RH WIND       PRES   REMARKS
PHILADELPHIA   LGT RAIN  71  70  96 SW9       29.74R
NORTH PHILA    LGT RAIN  73  70  90 S6        29.76R FOG
BLUE BELL*     CLOUDY    70  70 100 SW8       29.75R
DOYLESTOWN     LGT RAIN  70  69  97 VRB6      29.72R FOG
PERKASIE*      CLOUDY    68  68 100 S5        29.73R
POTTSTOWN      CLOUDY    69  69 100 S8        29.74R
LANCASTER      CLOUDY    66  65  96 S6        29.72R FOG
COATESVILLE    CLOUDY    64  64 100 VRB5      29.76R
READING        MOCLDY    68  68 100 S15       29.69R
ALLENTOWN      LGT RAIN  72  68  87 E10       29.71R FOG
MOUNT POCONO   LGT RAIN  66  66 100 E22G29    29.76R FOG
HAZLETON       LGT RAIN  68  68 100 SE13G21   29.71R
LEHIGHTON      DRIZZLE   70  70 100 SE8       29.70R
WILKES BARRE   LGT RAIN  69  66  90 E6        29.69S FOG

$$
DEZALL-MDZ008-012-015-019-020-221100-
DELAWARE AND EASTERN MARYLAND

CITY           SKY/WX    TMP DP  RH WIND       PRES   REMARKS
WILMINGTON     CLOUDY    68  67  96 S9        29.75R
DOVER          CLOUDY    69  67  95 S14       29.76R
GEORGETOWN     CLOUDY    70  68  93 SW13      29.80R
EASTON         CLOUDY    68  64  88 W5        29.80R
PATUXENT       FAIR      65  65 100 CALM      29.76
OCEAN CITY     CLOUDY    71  68  90 SW12G18   29.81R
WALLOPS ISLAND CLOUDY    71  69  93 SW3       29.81R
CAMBRIDGE      CLOUDY    68  66  94 CALM      29.78R
SALISBURY      CLOUDY    69  69 100 S6        29.80R

$$
PAZ001-021-NYZ056-072-MDZ011-DCZ001-221100-
OTHER NEARBY LOCATIONS

CITY           SKY/WX    TMP DP  RH WIND       PRES   REMARKS
HARRISBURG     CLOUDY    66  64  93 SW5       29.69R FOG
STATE COLLEGE  DRIZZLE   59  59 100 W6        29.70S FOG
WILLIAMSPORT   RAIN      62  61  96 W10       29.64R FOG
BINGHAMTON     LGT RAIN  62  61  96 E13G22    29.75S
NEW YORK CITY  LGT RAIN  73  72  96 MISG      29.82S FOG
BALTIMORE      MOCLDY    64  63  96 S5        29.75R
WASHINGTON DC  FAIR      65  61  87 S7        29.76R

$$